This is the latest recevied weather packets stored in our database for station/object SP2FH-13. If no packets are shown the sender has not sent any weather packets the latest 10 day(s).
| Time | Temp. | Humidity | Pressure | Rain* | Wind** | Luminosity | Snow |
|---|---|---|---|---|---|---|---|
| 1777795994 | 23.89° C | 25% | 1005.8 hPa | - | - | 593 W/m² | - |
| 1777795692 | 23.89° C | 28% | 1005.8 hPa | - | - | 583 W/m² | - |
| 1777795391 | 23.33° C | 27% | 1005.9 hPa | - | - | 569 W/m² | - |
| 1777795091 | 22.78° C | 27% | 1005.8 hPa | - | - | 557 W/m² | - |
| 1777794790 | 22.22° C | 28% | 1005.9 hPa | - | - | 549 W/m² | - |
| 1777794489 | 21.67° C | 30% | 1005.9 hPa | - | - | 539 W/m² | - |
| 1777793887 | 22.22° C | 29% | 1006 hPa | - | - | 512 W/m² | - |
| 1777793586 | 22.22° C | 30% | 1005.9 hPa | - | - | 501 W/m² | - |
| 1777793285 | 21.67° C | 31% | 1006 hPa | - | - | 482 W/m² | - |
| 1777792984 | 21.67° C | 30% | 1006 hPa | - | - | 470 W/m² | - |
| 1777792683 | 21.67° C | 30% | 1006.1 hPa | - | - | 461 W/m² | - |
| 1777792382 | 21.67° C | 30% | 1006.1 hPa | - | - | 445 W/m² | - |
| 1777792080 | 21.11° C | 33% | 1006.1 hPa | - | - | 424 W/m² | - |
| 1777791779 | 20.56° C | 32% | 1006.1 hPa | - | - | 414 W/m² | - |
| 1777791478 | 21.11° C | 33% | 1006.1 hPa | - | - | 404 W/m² | - |
| 1777791177 | 20.56° C | 33% | 1006.2 hPa | - | - | 392 W/m² | - |
| 1777790873 | 20° C | 33% | 1006.2 hPa | - | - | 379 W/m² | - |
| 1777790571 | 19.44° C | 35% | 1006.3 hPa | - | - | 361 W/m² | - |
| 1777790270 | 20° C | 34% | 1006.2 hPa | - | - | 335 W/m² | - |
| 1777789970 | 19.44° C | 36% | 1006.3 hPa | - | - | 324 W/m² | - |
| 1777789367 | 18.89° C | 37% | 1006.3 hPa | - | - | 286 W/m² | - |
| 1777789065 | 18.33° C | 40% | 1006.2 hPa | - | - | 279 W/m² | - |
| 1777788765 | 17.78° C | 41% | 1006.4 hPa | - | - | 273 W/m² | - |
| 1777788464 | 17.78° C | 44% | 1006.4 hPa | - | - | 262 W/m² | - |
| 1777788163 | 17.22° C | 44% | 1006.4 hPa | - | - | 158 W/m² | - |
* Rain since midnight (hover to see other rain measurements)
** Current wind speed in m/s (hover to see current wind gust speed)